User: anonymous   Login
Location: Peebles
(55.6412°N, 3.1714°W)
Time: 03:35:21
(UTC+00:00)
Language:

Cosmos 2154 Rocket - Orbit

View from above orbital plane
View from above orbital plane
View from above satellite
View from above satellite

Ground track
Ground track

The orbit data is extracted from the following two-line orbital elements,

1 21667U 91059B   21333.70075808  .00000029  00000-0  14858-4 0  9994
2 21667  82.9079 237.8527 0021914  42.3382 336.5364 13.75103010518962
Epoch (UTC): 29 November 2021 16:49:05
Eccentricity: 0.0021914
inclination: 82.9079°
perigee height: 965 km
apogee height: 997 km
right ascension of ascending node: 237.8527°
argument of perigee: 42.3382°
revolutions per day: 13.75103010
mean anomaly at epoch: 336.5364°
orbit number at epoch: 51896

The dashed part of the orbit path shows where the satellite is in the earth's shadow,  

DLR